Time,TemperatureF,DewpointF,PressureIn,WindDirection,WindDirectionDegrees,WindSpeedMPH,WindSpeedGustMPH,Humidity,HourlyPrecipIn,Conditions,Clouds,dailyrainin,SoftwareType,DateUTC
2014-01-19 00:01:00,34.9,29.1,29.75,NW,315,8.0,16.0,79,0.00,,,0.00,meteohub,2014-01-19 05:01:00,
2014-01-19 00:02:00,34.7,28.9,29.75,NW,315,15.0,16.0,79,0.00,,,0.00,meteohub,2014-01-19 05:02:00,
2014-01-19 00:03:00,34.7,28.9,29.75,NW,315,15.0,16.0,79,0.00,,,0.00,meteohub,2014-01-19 05:03:00,
2014-01-19 00:04:00,34.7,28.9,29.75,WNW,293,15.0,16.0,79,0.00,,,0.00,meteohub,2014-01-19 05:04:00,
2014-01-19 00:07:00,34.7,28.9,29.75,West,270,15.0,16.0,79,0.00,,,0.00,meteohub,2014-01-19 05:07:00,
2014-01-19 00:12:00,34.7,28.9,29.75,West,270,15.0,16.0,79,0.00,,,0.00,meteohub,2014-01-19 05:12:00,
2014-01-19 00:17:00,34.3,27.9,29.75,NW,315,17.0,17.0,77,0.00,,,0.00,meteohub,2014-01-19 05:17:00,
2014-01-19 00:23:00,34.2,27.3,29.75,West,270,18.0,18.0,76,0.00,,,0.00,meteohub,2014-01-19 05:23:00,
2014-01-19 00:28:00,34.2,27.3,29.77,NW,315,17.0,20.0,76,0.00,,,0.00,meteohub,2014-01-19 05:28:00,
2014-01-19 00:33:00,34.0,27.1,29.77,West,270,11.0,20.0,76,0.00,,,0.00,meteohub,2014-01-19 05:33:00,
2014-01-19 00:38:00,33.8,27.3,29.77,West,270,19.0,20.0,77,0.00,,,0.00,meteohub,2014-01-19 05:38:00,
2014-01-19 00:43:00,34.0,27.5,29.77,NW,315,11.0,19.0,77,0.00,,,0.00,meteohub,2014-01-19 05:43:00,
2014-01-19 00:48:00,33.6,27.1,29.78,West,270,17.0,19.0,77,0.00,,,0.00,meteohub,2014-01-19 05:48:00,
2014-01-19 00:53:00,33.4,27.3,29.78,NW,315,15.0,19.0,78,0.00,,,0.00,meteohub,2014-01-19 05:53:00,
2014-01-19 00:58:00,33.4,27.3,29.78,WNW,293,9.0,18.0,78,0.00,,,0.00,meteohub,2014-01-19 05:58:00,
2014-01-19 01:03:00,33.1,27.0,29.78,West,270,11.0,17.0,78,0.00,,,0.00,meteohub,2014-01-19 06:03:00,
2014-01-19 01:08:00,33.3,27.1,29.76,West,270,18.0,19.0,78,0.00,,,0.00,meteohub,2014-01-19 06:08:00,
2014-01-19 01:13:00,32.9,26.8,29.76,NW,315,20.0,20.0,78,0.00,,,0.00,meteohub,2014-01-19 06:13:00,
2014-01-19 01:19:00,32.9,26.8,29.76,WNW,293,12.0,19.0,78,0.00,,,0.00,meteohub,2014-01-19 06:19:00,
2014-01-19 01:24:00,32.7,27.0,29.76,NW,315,12.0,20.0,79,0.00,,,0.00,meteohub,2014-01-19 06:24:00,
2014-01-19 01:29:00,32.5,26.8,29.76,WNW,293,18.0,20.0,79,0.00,,,0.00,meteohub,2014-01-19 06:29:00,
2014-01-19 01:34:00,32.2,26.4,29.76,WNW,293,14.0,18.0,79,0.00,,,0.00,meteohub,2014-01-19 06:34:00,
2014-01-19 01:39:00,32.2,26.4,29.76,WNW,293,14.0,18.0,79,0.00,,,0.00,meteohub,2014-01-19 06:39:00,
2014-01-19 01:44:00,31.8,26.1,29.76,West,270,19.0,19.0,79,0.00,,,0.00,meteohub,2014-01-19 06:44:00,
2014-01-19 01:49:00,31.8,26.1,29.76,West,270,18.0,19.0,79,0.00,,,0.00,meteohub,2014-01-19 06:49:00,
2014-01-19 01:54:00,31.8,26.1,29.76,West,270,8.0,19.0,79,0.00,,,0.00,meteohub,2014-01-19 06:54:00,
2014-01-19 01:59:00,31.8,26.4,29.76,West,270,17.0,19.0,80,0.00,,,0.00,meteohub,2014-01-19 06:59:00,
2014-01-19 02:04:00,31.5,26.1,29.76,West,270,15.0,18.0,80,0.00,,,0.00,meteohub,2014-01-19 07:04:00,
2014-01-19 02:09:00,31.5,25.7,29.76,NW,315,13.0,17.0,79,0.00,,,0.00,meteohub,2014-01-19 07:09:00,
2014-01-19 02:14:00,31.3,25.9,29.76,West,270,15.0,17.0,80,0.00,,,0.00,meteohub,2014-01-19 07:14:00,
2014-01-19 02:19:00,31.3,25.5,29.76,NW,315,14.0,17.0,79,0.00,,,0.00,meteohub,2014-01-19 07:19:00,
2014-01-19 02:24:00,31.3,25.5,29.76,WNW,293,14.0,17.0,79,0.00,,,0.00,meteohub,2014-01-19 07:24:00,
2014-01-19 02:30:00,31.1,25.3,29.78,WNW,293,16.0,17.0,79,0.00,,,0.00,meteohub,2014-01-19 07:30:00,
2014-01-19 02:35:00,31.3,25.5,29.78,WNW,293,15.0,21.0,79,0.00,,,0.00,meteohub,2014-01-19 07:35:00,
2014-01-19 02:40:00,31.3,25.5,29.78,West,270,21.0,21.0,79,0.00,,,0.00,meteohub,2014-01-19 07:40:00,
2014-01-19 02:45:00,31.5,25.7,29.78,NW,315,16.0,21.0,79,0.00,,,0.00,meteohub,2014-01-19 07:45:00,
2014-01-19 02:50:00,31.3,25.5,29.79,WNW,293,14.0,21.0,79,0.00,,,0.00,meteohub,2014-01-19 07:50:00,
2014-01-19 02:55:00,31.3,25.5,29.79,WNW,293,15.0,21.0,79,0.00,,,0.00,meteohub,2014-01-19 07:55:00,
2014-01-19 03:00:00,31.5,25.7,29.79,West,270,21.0,21.0,79,0.00,,,0.00,meteohub,2014-01-19 08:00:00,
2014-01-19 03:05:00,31.1,25.0,29.79,West,270,19.0,21.0,78,0.00,,,0.00,meteohub,2014-01-19 08:05:00,
2014-01-19 03:10:00,31.1,25.0,29.77,West,270,19.0,21.0,78,0.00,,,0.00,meteohub,2014-01-19 08:10:00,
2014-01-19 03:15:00,31.1,25.0,29.77,West,270,19.0,21.0,78,0.00,,,0.00,meteohub,2014-01-19 08:15:00,
2014-01-19 03:20:00,31.1,25.0,29.77,West,270,17.0,19.0,78,0.00,,,0.00,meteohub,2014-01-19 08:20:00,
2014-01-19 03:25:00,31.1,25.0,29.77,WNW,293,13.0,19.0,78,0.00,,,0.00,meteohub,2014-01-19 08:25:00,
2014-01-19 03:30:00,31.1,25.0,29.77,WNW,293,16.0,19.0,78,0.00,,,0.00,meteohub,2014-01-19 08:30:00,
2014-01-19 03:36:00,30.7,24.6,29.77,NW,315,15.0,17.0,78,0.00,,,0.00,meteohub,2014-01-19 08:36:00,
2014-01-19 03:41:00,30.7,24.6,29.77,WSW,248,13.0,19.0,78,0.00,,,0.00,meteohub,2014-01-19 08:41:00,
2014-01-19 03:46:00,30.7,24.6,29.77,WNW,293,16.0,24.0,78,0.00,,,0.00,meteohub,2014-01-19 08:46:00,
2014-01-19 03:51:00,30.7,24.6,29.78,West,270,13.0,24.0,78,0.00,,,0.00,meteohub,2014-01-19 08:51:00,
2014-01-19 03:56:00,30.7,24.6,29.78,West,270,12.0,24.0,78,0.00,,,0.00,meteohub,2014-01-19 08:56:00,
2014-01-19 04:01:00,30.7,24.6,29.78,WNW,293,9.0,16.0,78,0.00,,,0.00,meteohub,2014-01-19 09:01:00,
2014-01-19 04:06:00,31.1,25.0,29.78,West,270,12.0,15.0,78,0.00,,,0.00,meteohub,2014-01-19 09:06:00,
2014-01-19 04:11:00,31.1,25.0,29.78,NW,315,13.0,15.0,78,0.00,,,0.00,meteohub,2014-01-19 09:11:00,
2014-01-19 04:16:00,31.1,25.0,29.78,West,270,14.0,14.0,78,0.00,,,0.00,meteohub,2014-01-19 09:16:00,
2014-01-19 04:21:00,31.1,24.8,29.78,WNW,293,14.0,14.0,77,0.00,,,0.00,meteohub,2014-01-19 09:21:00,
2014-01-19 04:26:00,31.1,24.8,29.76,NW,315,11.0,14.0,77,0.00,,,0.00,meteohub,2014-01-19 09:26:00,
2014-01-19 04:31:00,31.1,24.8,29.76,West,270,16.0,16.0,77,0.00,,,0.00,meteohub,2014-01-19 09:31:00,
2014-01-19 04:36:00,30.7,24.4,29.76,WNW,293,17.0,18.0,77,0.00,,,0.00,meteohub,2014-01-19 09:36:00,
2014-01-19 04:41:00,30.7,24.4,29.76,West,270,16.0,18.0,77,0.00,,,0.00,meteohub,2014-01-19 09:41:00,
2014-01-19 04:46:00,30.7,24.6,29.77,WNW,293,9.0,18.0,78,0.00,,,0.00,meteohub,2014-01-19 09:46:00,
2014-01-19 04:51:00,30.7,24.6,29.77,West,270,18.0,18.0,78,0.00,,,0.00,meteohub,2014-01-19 09:51:00,
2014-01-19 04:57:00,30.6,24.4,29.77,WNW,293,13.0,18.0,78,0.00,,,0.00,meteohub,2014-01-19 09:57:00,
2014-01-19 05:02:00,30.6,24.4,29.77,West,270,21.0,21.0,78,0.00,,,0.00,meteohub,2014-01-19 10:02:00,
2014-01-19 05:07:00,30.7,24.6,29.77,WNW,293,13.0,21.0,78,0.00,,,0.00,meteohub,2014-01-19 10:07:00,
2014-01-19 05:12:00,30.7,24.6,29.77,West,270,15.0,21.0,78,0.00,,,0.00,meteohub,2014-01-19 10:12:00,
2014-01-19 05:17:00,30.7,24.6,29.77,West,270,17.0,21.0,78,0.00,,,0.00,meteohub,2014-01-19 10:17:00,
2014-01-19 05:22:00,30.7,24.6,29.77,West,270,21.0,21.0,78,0.00,,,0.00,meteohub,2014-01-19 10:22:00,
2014-01-19 05:27:00,30.7,24.4,29.77,West,270,13.0,21.0,77,0.00,,,0.00,meteohub,2014-01-19 10:27:00,
2014-01-19 05:32:00,30.7,24.6,29.77,West,270,13.0,21.0,78,0.00,,,0.00,meteohub,2014-01-19 10:32:00,
2014-01-19 05:37:00,30.7,24.4,29.77,West,270,20.0,21.0,77,0.00,,,0.00,meteohub,2014-01-19 10:37:00,
2014-01-19 05:42:00,30.7,24.4,29.77,West,270,18.0,21.0,77,0.00,,,0.00,meteohub,2014-01-19 10:42:00,
2014-01-19 05:47:00,30.7,24.4,29.76,WNW,293,18.0,21.0,77,0.00,,,0.00,meteohub,2014-01-19 10:47:00,
2014-01-19 05:52:00,30.7,24.1,29.76,WNW,293,19.0,23.0,76,0.00,,,0.00,meteohub,2014-01-19 10:52:00,
2014-01-19 05:57:00,30.7,24.1,29.76,WNW,293,21.0,23.0,76,0.00,,,0.00,meteohub,2014-01-19 10:57:00,
2014-01-19 06:02:00,31.1,24.4,29.76,West,270,18.0,21.0,76,0.00,,,0.00,meteohub,2014-01-19 11:02:00,
2014-01-19 06:07:00,31.1,24.4,29.77,NW,315,11.0,21.0,76,0.00,,,0.00,meteohub,2014-01-19 11:07:00,
2014-01-19 06:12:00,31.1,24.4,29.77,NW,315,11.0,21.0,76,0.00,,,0.00,meteohub,2014-01-19 11:12:00,
2014-01-19 06:17:00,31.1,24.8,29.77,WNW,293,13.0,19.0,77,0.00,,,0.00,meteohub,2014-01-19 11:17:00,
2014-01-19 06:22:00,31.1,25.0,29.77,West,270,20.0,20.0,78,0.00,,,0.00,meteohub,2014-01-19 11:22:00,
2014-01-19 06:27:00,31.1,25.0,29.78,West,270,19.0,22.0,78,0.00,,,0.00,meteohub,2014-01-19 11:27:00,
2014-01-19 06:32:00,31.1,24.8,29.78,WNW,293,14.0,22.0,77,0.00,,,0.00,meteohub,2014-01-19 11:32:00,
2014-01-19 06:38:00,31.1,24.8,29.78,West,270,17.0,22.0,77,0.00,,,0.00,meteohub,2014-01-19 11:38:00,
2014-01-19 06:43:00,31.1,25.0,29.78,West,270,21.0,22.0,78,0.00,,,0.00,meteohub,2014-01-19 11:43:00,
2014-01-19 06:48:00,31.1,24.8,29.78,West,270,22.0,26.0,77,0.00,,,0.00,meteohub,2014-01-19 11:48:00,
2014-01-19 06:53:00,31.1,25.0,29.78,WNW,293,17.0,26.0,78,0.00,,,0.00,meteohub,2014-01-19 11:53:00,
2014-01-19 06:58:00,31.1,25.0,29.78,West,270,10.0,26.0,78,0.00,,,0.00,meteohub,2014-01-19 11:58:00,
2014-01-19 07:03:00,31.1,25.0,29.78,WNW,293,16.0,23.0,78,0.00,,,0.00,meteohub,2014-01-19 12:03:00,
2014-01-19 07:08:00,31.5,25.3,29.77,West,270,15.0,23.0,78,0.00,,,0.00,meteohub,2014-01-19 12:08:00,
2014-01-19 07:13:00,31.1,25.0,29.77,West,270,15.0,23.0,78,0.00,,,0.00,meteohub,2014-01-19 12:13:00,
2014-01-19 07:19:00,31.1,24.8,29.77,West,270,8.0,21.0,77,0.00,,,0.00,meteohub,2014-01-19 12:19:00,
2014-01-19 07:24:00,31.3,25.2,29.77,West,270,21.0,21.0,78,0.00,,,0.00,meteohub,2014-01-19 12:24:00,
2014-01-19 07:29:00,31.5,25.3,29.78,NW,315,19.0,21.0,78,0.00,,,0.00,meteohub,2014-01-19 12:29:00,
2014-01-19 07:34:00,31.8,25.7,29.78,West,270,15.0,21.0,78,0.00,,,0.00,meteohub,2014-01-19 12:34:00,
2014-01-19 07:39:00,31.5,25.3,29.78,WSW,248,19.0,21.0,78,0.00,,,0.00,meteohub,2014-01-19 12:39:00,
2014-01-19 07:44:00,31.8,25.7,29.78,West,270,12.0,20.0,78,0.00,,,0.00,meteohub,2014-01-19 12:44:00,
2014-01-19 07:49:00,31.8,25.7,29.78,WSW,248,22.0,22.0,78,0.00,,,0.00,meteohub,2014-01-19 12:49:00,
2014-01-19 07:54:00,31.6,25.3,29.78,West,270,15.0,22.0,77,0.00,,,0.00,meteohub,2014-01-19 12:54:00,
2014-01-19 07:59:00,31.6,25.5,29.78,West,270,24.0,24.0,78,0.00,,,0.00,meteohub,2014-01-19 12:59:00,
2014-01-19 08:04:00,31.5,25.3,29.78,West,270,17.0,24.0,78,0.00,,,0.00,meteohub,2014-01-19 13:04:00,
2014-01-19 08:09:00,31.8,25.7,29.78,WSW,248,17.0,24.0,78,0.00,,,0.00,meteohub,2014-01-19 13:09:00,
2014-01-19 08:15:00,31.5,26.1,29.78,West,270,12.0,21.0,80,0.00,,,0.00,meteohub,2014-01-19 13:15:00,
2014-01-19 08:20:00,31.1,26.2,29.78,WSW,248,21.0,21.0,82,0.00,,,0.00,meteohub,2014-01-19 13:20:00,
2014-01-19 08:25:00,31.1,26.2,29.78,WSW,248,17.0,21.0,82,0.00,,,0.00,meteohub,2014-01-19 13:25:00,
2014-01-19 08:30:00,31.1,26.6,29.76,WNW,293,21.0,21.0,83,0.00,,,0.00,meteohub,2014-01-19 13:30:00,
2014-01-19 08:35:00,31.1,26.6,29.76,WSW,248,17.0,21.0,83,0.00,,,0.00,meteohub,2014-01-19 13:35:00,
2014-01-19 08:40:00,31.1,25.9,29.76,WSW,248,23.0,23.0,81,0.00,,,0.00,meteohub,2014-01-19 13:40:00,
2014-01-19 08:45:00,31.1,26.2,29.78,WSW,248,26.0,26.0,82,0.00,,,0.00,meteohub,2014-01-19 13:45:00,
2014-01-19 08:50:00,31.1,25.9,29.78,WSW,248,27.0,27.0,81,0.00,,,0.00,meteohub,2014-01-19 13:50:00,
2014-01-19 08:55:00,31.1,25.9,29.78,WSW,248,23.0,27.0,81,0.00,,,0.00,meteohub,2014-01-19 13:55:00,
2014-01-19 09:00:00,30.7,25.5,29.78,West,270,17.0,27.0,81,0.00,,,0.00,meteohub,2014-01-19 14:00:00,
2014-01-19 09:06:00,30.9,25.7,29.78,WSW,248,17.0,27.0,81,0.00,,,0.00,meteohub,2014-01-19 14:06:00,
2014-01-19 09:11:00,31.1,25.7,29.77,WSW,248,18.0,24.0,80,0.00,,,0.00,meteohub,2014-01-19 14:11:00,
2014-01-19 09:16:00,30.9,25.5,29.77,WSW,248,28.0,28.0,80,0.00,,,0.00,meteohub,2014-01-19 14:16:00,
2014-01-19 09:21:00,31.3,25.5,29.77,WSW,248,27.0,28.0,79,0.00,,,0.00,meteohub,2014-01-19 14:21:00,
2014-01-19 09:26:00,31.8,25.7,29.78,SW,225,13.0,28.0,78,0.00,,,0.00,meteohub,2014-01-19 14:26:00,
2014-01-19 09:31:00,31.8,25.7,29.78,SW,225,14.0,28.0,78,0.00,,,0.00,meteohub,2014-01-19 14:31:00,
2014-01-19 09:36:00,32.2,25.7,29.78,WSW,248,20.0,27.0,77,0.00,,,0.00,meteohub,2014-01-19 14:36:00,
2014-01-19 09:41:00,32.2,25.5,29.78,WSW,248,12.0,25.0,76,0.00,,,0.00,meteohub,2014-01-19 14:41:00,
2014-01-19 09:46:00,32.4,25.3,29.79,WSW,248,22.0,32.0,75,0.00,,,0.00,meteohub,2014-01-19 14:46:00,
2014-01-19 09:51:00,32.5,25.2,29.79,SE,135,18.0,32.0,74,0.00,,,0.00,meteohub,2014-01-19 14:51:00,
2014-01-19 09:56:00,32.4,24.6,29.79,West,270,16.0,32.0,73,0.00,,,0.00,meteohub,2014-01-19 14:56:00,
2014-01-19 10:01:00,32.5,25.2,29.79,WSW,248,25.0,25.0,74,0.00,,,0.00,meteohub,2014-01-19 15:01:00,
2014-01-19 10:06:00,32.9,25.2,29.78,West,270,19.0,25.0,73,0.00,,,0.00,meteohub,2014-01-19 15:06:00,
2014-01-19 10:12:00,32.9,25.2,29.78,NW,315,17.0,25.0,73,0.00,,,0.00,meteohub,2014-01-19 15:12:00,
2014-01-19 10:17:00,32.7,25.0,29.78,WSW,248,32.0,32.0,73,0.00,,,0.00,meteohub,2014-01-19 15:17:00,
2014-01-19 10:22:00,32.5,24.4,29.78,WSW,248,26.0,32.0,72,0.00,,,0.00,meteohub,2014-01-19 15:22:00,
2014-01-19 10:27:00,32.5,24.3,29.77,West,270,30.0,32.0,71,0.00,,,0.00,meteohub,2014-01-19 15:27:00,
2014-01-19 10:32:00,32.5,24.3,29.77,WSW,248,21.0,32.0,71,0.00,,,0.00,meteohub,2014-01-19 15:32:00,
2014-01-19 10:37:00,32.5,24.3,29.77,West,270,26.0,30.0,71,0.00,,,0.00,meteohub,2014-01-19 15:37:00,
2014-01-19 10:42:00,32.4,24.1,29.77,WNW,293,14.0,30.0,71,0.00,,,0.00,meteohub,2014-01-19 15:42:00,
2014-01-19 10:47:00,32.5,24.4,29.76,West,270,21.0,26.0,72,0.00,,,0.00,meteohub,2014-01-19 15:47:00,
2014-01-19 10:52:00,32.5,24.4,29.76,WNW,293,12.0,26.0,72,0.00,,,0.00,meteohub,2014-01-19 15:52:00,
2014-01-19 10:57:00,32.7,24.4,29.76,WSW,248,30.0,30.0,71,0.00,,,0.00,meteohub,2014-01-19 15:57:00,
2014-01-19 11:02:00,32.5,23.9,29.76,WSW,248,19.0,30.0,70,0.00,,,0.00,meteohub,2014-01-19 16:02:00,
2014-01-19 11:07:00,32.5,23.9,29.75,WSW,248,24.0,30.0,70,0.00,,,0.00,meteohub,2014-01-19 16:07:00,
2014-01-19 11:12:00,32.5,23.5,29.75,WSW,248,17.0,32.0,69,0.00,,,0.00,meteohub,2014-01-19 16:12:00,
2014-01-19 11:17:00,32.7,24.1,29.75,West,270,20.0,32.0,70,0.00,,,0.00,meteohub,2014-01-19 16:17:00,
2014-01-19 11:22:00,32.5,23.2,29.75,West,270,28.0,32.0,68,0.00,,,0.00,meteohub,2014-01-19 16:22:00,
2014-01-19 11:27:00,32.2,23.2,29.74,WNW,293,23.0,30.0,69,0.00,,,0.00,meteohub,2014-01-19 16:27:00,
2014-01-19 11:32:00,32.4,23.4,29.74,WNW,293,30.0,30.0,69,0.00,,,0.00,meteohub,2014-01-19 16:32:00,
2014-01-19 11:37:00,32.5,23.9,29.74,WSW,248,27.0,34.0,70,0.00,,,0.00,meteohub,2014-01-19 16:37:00,
2014-01-19 11:42:00,32.7,24.1,29.74,NW,315,21.0,34.0,70,0.00,,,0.00,meteohub,2014-01-19 16:42:00,
2014-01-19 11:47:00,32.7,24.1,29.73,WSW,248,27.0,34.0,70,0.00,,,0.00,meteohub,2014-01-19 16:47:00,
2014-01-19 11:52:00,32.7,24.1,29.73,NW,315,22.0,27.0,70,0.00,,,0.00,meteohub,2014-01-19 16:52:00,
2014-01-19 11:57:00,33.3,24.3,29.73,West,270,20.0,27.0,69,0.00,,,0.00,meteohub,2014-01-19 16:57:00,
2014-01-19 12:02:00,32.9,23.9,29.73,NW,315,19.0,27.0,69,0.00,,,0.00,meteohub,2014-01-19 17:02:00,
2014-01-19 12:07:00,33.3,24.6,29.71,WSW,248,28.0,28.0,70,0.00,,,0.00,meteohub,2014-01-19 17:07:00,
2014-01-19 12:12:00,33.3,24.6,29.71,WSW,248,28.0,28.0,70,0.00,,,0.00,meteohub,2014-01-19 17:12:00,
2014-01-19 12:17:00,33.4,24.4,29.71,West,270,31.0,31.0,69,0.00,,,0.00,meteohub,2014-01-19 17:17:00,
2014-01-19 12:22:00,34.0,24.8,29.71,West,270,23.0,31.0,69,0.00,,,0.00,meteohub,2014-01-19 17:22:00,
2014-01-19 12:27:00,34.0,24.6,29.71,WSW,248,26.0,31.0,68,0.00,,,0.00,meteohub,2014-01-19 17:27:00,
2014-01-19 12:32:00,34.0,24.8,29.71,NW,315,21.0,31.0,69,0.00,,,0.00,meteohub,2014-01-19 17:32:00,
2014-01-19 12:37:00,34.2,25.0,29.71,NNE,23,31.0,31.0,69,0.00,,,0.00,meteohub,2014-01-19 17:37:00,
2014-01-19 12:42:00,34.3,24.8,29.71,West,270,28.0,31.0,68,0.00,,,0.00,meteohub,2014-01-19 17:42:00,
2014-01-19 12:47:00,34.3,24.4,29.69,West,270,18.0,31.0,67,0.00,,,0.00,meteohub,2014-01-19 17:47:00,
2014-01-19 12:52:00,34.3,24.4,29.69,WNW,293,29.0,31.0,67,0.00,,,0.00,meteohub,2014-01-19 17:52:00,
2014-01-19 12:57:00,34.5,25.0,29.69,WSW,248,33.0,33.0,68,0.00,,,0.00,meteohub,2014-01-19 17:57:00,
2014-01-19 13:02:00,34.7,25.2,29.69,West,270,19.0,33.0,68,0.00,,,0.00,meteohub,2014-01-19 18:02:00,
2014-01-19 13:07:00,34.2,25.0,29.68,WSW,248,26.0,33.0,69,0.00,,,0.00,meteohub,2014-01-19 18:07:00,
2014-01-19 13:12:00,34.2,25.0,29.68,West,270,26.0,33.0,69,0.00,,,0.00,meteohub,2014-01-19 18:12:00,
2014-01-19 13:17:00,34.2,25.0,29.68,WNW,293,16.0,32.0,69,0.00,,,0.00,meteohub,2014-01-19 18:17:00,
2014-01-19 13:22:00,34.3,24.8,29.68,WSW,248,21.0,26.0,68,0.00,,,0.00,meteohub,2014-01-19 18:22:00,
2014-01-19 13:27:00,34.5,25.3,29.67,West,270,21.0,29.0,69,0.00,,,0.00,meteohub,2014-01-19 18:27:00,
2014-01-19 13:32:00,34.7,25.2,29.67,WSW,248,23.0,29.0,68,0.00,,,0.00,meteohub,2014-01-19 18:32:00,
2014-01-19 13:37:00,34.3,24.4,29.67,West,270,19.0,29.0,67,0.00,,,0.00,meteohub,2014-01-19 18:37:00,
2014-01-19 13:42:00,34.3,24.8,29.67,West,270,21.0,26.0,68,0.00,,,0.00,meteohub,2014-01-19 18:42:00,
2014-01-19 13:47:00,34.3,24.8,29.65,WNW,293,17.0,26.0,68,0.00,,,0.00,meteohub,2014-01-19 18:47:00,
2014-01-19 13:52:00,34.3,24.8,29.65,West,270,22.0,26.0,68,0.00,,,0.00,meteohub,2014-01-19 18:52:00,
2014-01-19 13:57:00,34.7,25.5,29.65,West,270,14.0,28.0,69,0.00,,,0.00,meteohub,2014-01-19 18:57:00,
2014-01-19 14:02:00,34.7,25.5,29.65,WSW,248,25.0,28.0,69,0.00,,,0.00,meteohub,2014-01-19 19:02:00,
2014-01-19 14:07:00,34.3,25.2,29.65,West,270,19.0,28.0,69,0.00,,,0.00,meteohub,2014-01-19 19:07:00,
2014-01-19 14:12:00,34.5,25.7,29.65,West,270,17.0,25.0,70,0.00,,,0.00,meteohub,2014-01-19 19:12:00,
2014-01-19 14:17:00,34.9,25.7,29.65,WNW,293,14.0,25.0,69,0.00,,,0.00,meteohub,2014-01-19 19:17:00,
2014-01-19 14:22:00,35.4,26.2,29.65,West,270,26.0,26.0,69,0.00,,,0.00,meteohub,2014-01-19 19:22:00,
2014-01-19 14:27:00,35.6,26.4,29.65,West,270,21.0,26.0,69,0.00,,,0.00,meteohub,2014-01-19 19:27:00,
2014-01-19 14:32:00,36.0,26.4,29.65,West,270,14.0,26.0,68,0.00,,,0.00,meteohub,2014-01-19 19:32:00,
2014-01-19 14:37:00,36.1,26.6,29.65,WSW,248,19.0,26.0,68,0.00,,,0.00,meteohub,2014-01-19 19:37:00,
2014-01-19 14:42:00,36.0,26.4,29.65,West,270,26.0,26.0,68,0.00,,,0.00,meteohub,2014-01-19 19:42:00,
2014-01-19 14:47:00,36.1,26.6,29.66,WNW,293,13.0,26.0,68,0.00,,,0.00,meteohub,2014-01-19 19:47:00,
2014-01-19 14:52:00,36.3,26.8,29.66,WSW,248,26.0,26.0,68,0.00,,,0.00,meteohub,2014-01-19 19:52:00,
2014-01-19 14:57:00,36.3,26.8,29.66,West,270,22.0,26.0,68,0.00,,,0.00,meteohub,2014-01-19 19:57:00,
2014-01-19 15:02:00,35.6,26.4,29.66,WSW,248,26.0,31.0,69,0.00,,,0.00,meteohub,2014-01-19 20:02:00,
2014-01-19 15:07:00,35.4,26.2,29.65,WSW,248,27.0,31.0,69,0.00,,,0.00,meteohub,2014-01-19 20:07:00,
2014-01-19 15:12:00,35.1,25.9,29.65,WNW,293,21.0,31.0,69,0.00,,,0.00,meteohub,2014-01-19 20:12:00,
2014-01-19 15:17:00,35.4,26.6,29.65,SW,225,21.0,32.0,70,0.00,,,0.00,meteohub,2014-01-19 20:17:00,
2014-01-19 15:22:00,35.8,27.0,29.65,West,270,19.0,32.0,70,0.00,,,0.00,meteohub,2014-01-19 20:22:00,
2014-01-19 15:27:00,36.1,27.0,29.65,WSW,248,22.0,22.0,69,0.00,,,0.00,meteohub,2014-01-19 20:27:00,
2014-01-19 15:32:00,36.3,26.8,29.65,WSW,248,18.0,23.0,68,0.00,,,0.00,meteohub,2014-01-19 20:32:00,
2014-01-19 15:37:00,36.1,26.2,29.65,WSW,248,15.0,23.0,67,0.00,,,0.00,meteohub,2014-01-19 20:37:00,
2014-01-19 15:42:00,36.1,25.9,29.65,West,270,15.0,22.0,66,0.00,,,0.00,meteohub,2014-01-19 20:42:00,
2014-01-19 15:47:00,35.8,25.5,29.65,WSW,248,28.0,28.0,66,0.00,,,0.00,meteohub,2014-01-19 20:47:00,
2014-01-19 15:52:00,35.6,25.7,29.65,West,270,16.0,28.0,67,0.00,,,0.00,meteohub,2014-01-19 20:52:00,
2014-01-19 15:57:00,35.8,25.9,29.65,WSW,248,21.0,28.0,67,0.00,,,0.00,meteohub,2014-01-19 20:57:00,
2014-01-19 16:02:00,35.6,25.7,29.65,West,270,19.0,28.0,67,0.00,,,0.00,meteohub,2014-01-19 21:02:00,
2014-01-19 16:07:00,35.6,26.1,29.65,WSW,248,26.0,26.0,68,0.00,,,0.00,meteohub,2014-01-19 21:07:00,
2014-01-19 16:12:00,35.6,25.7,29.65,West,270,29.0,29.0,67,0.00,,,0.00,meteohub,2014-01-19 21:12:00,
2014-01-19 16:17:00,35.4,25.9,29.65,WSW,248,17.0,30.0,68,0.00,,,0.00,meteohub,2014-01-19 21:17:00,
2014-01-19 16:22:00,35.4,25.9,29.65,WSW,248,26.0,30.0,68,0.00,,,0.00,meteohub,2014-01-19 21:22:00,
2014-01-19 16:27:00,35.4,26.2,29.63,West,270,16.0,30.0,69,0.00,,,0.00,meteohub,2014-01-19 21:27:00,
2014-01-19 16:32:00,35.4,26.2,29.63,WSW,248,24.0,26.0,69,0.00,,,0.00,meteohub,2014-01-19 21:32:00,
2014-01-19 16:37:00,35.4,26.6,29.63,West,270,26.0,26.0,70,0.00,,,0.00,meteohub,2014-01-19 21:37:00,
2014-01-19 16:42:00,35.1,26.2,29.63,West,270,27.0,27.0,70,0.00,,,0.00,meteohub,2014-01-19 21:42:00,
2014-01-19 16:47:00,35.1,26.2,29.64,West,270,19.0,27.0,70,0.00,,,0.00,meteohub,2014-01-19 21:47:00,
2014-01-19 16:52:00,34.9,26.1,29.64,West,270,20.0,27.0,70,0.00,,,0.00,meteohub,2014-01-19 21:52:00,
2014-01-19 16:57:00,35.1,26.6,29.64,WNW,293,25.0,27.0,71,0.00,,,0.00,meteohub,2014-01-19 21:57:00,
2014-01-19 17:02:00,34.9,26.8,29.64,West,270,22.0,26.0,72,0.00,,,0.00,meteohub,2014-01-19 22:02:00,
2014-01-19 17:07:00,34.9,26.4,29.65,West,270,17.0,26.0,71,0.00,,,0.00,meteohub,2014-01-19 22:07:00,
2014-01-19 17:12:00,34.9,26.8,29.65,WSW,248,23.0,26.0,72,0.00,,,0.00,meteohub,2014-01-19 22:12:00,
2014-01-19 17:17:00,35.1,27.0,29.65,West,270,20.0,23.0,72,0.00,,,0.00,meteohub,2014-01-19 22:17:00,
2014-01-19 17:22:00,35.2,27.1,29.65,NW,315,19.0,23.0,72,0.00,,,0.00,meteohub,2014-01-19 22:22:00,
2014-01-19 17:27:00,35.2,26.8,29.64,WSW,248,31.0,32.0,71,0.00,,,0.00,meteohub,2014-01-19 22:27:00,
2014-01-19 17:32:00,35.6,26.8,29.64,WSW,248,31.0,34.0,70,0.00,,,0.00,meteohub,2014-01-19 22:32:00,
2014-01-19 17:37:00,35.6,27.1,29.64,West,270,28.0,34.0,71,0.00,,,0.00,meteohub,2014-01-19 22:37:00,
2014-01-19 17:42:00,35.8,26.6,29.64,West,270,33.0,38.0,69,0.00,,,0.00,meteohub,2014-01-19 22:42:00,
2014-01-19 17:47:00,36.0,27.1,29.64,WSW,248,44.0,44.0,70,0.00,,,0.00,meteohub,2014-01-19 22:47:00,
2014-01-19 17:52:00,36.0,27.1,29.64,WNW,293,25.0,44.0,70,0.00,,,0.00,meteohub,2014-01-19 22:52:00,
2014-01-19 17:57:00,36.0,27.1,29.64,WNW,293,16.0,44.0,70,0.00,,,0.00,meteohub,2014-01-19 22:57:00,
2014-01-19 18:02:00,35.8,27.0,29.64,WSW,248,34.0,44.0,70,0.00,,,0.00,meteohub,2014-01-19 23:02:00,
2014-01-19 18:07:00,36.0,27.1,29.65,NW,315,25.0,34.0,70,0.00,,,0.00,meteohub,2014-01-19 23:07:00,
2014-01-19 18:12:00,36.0,27.9,29.65,West,270,26.0,34.0,72,0.00,,,0.00,meteohub,2014-01-19 23:12:00,
2014-01-19 18:17:00,36.1,27.3,29.65,WSW,248,32.0,34.0,70,0.00,,,0.00,meteohub,2014-01-19 23:17:00,
2014-01-19 18:22:00,36.1,26.6,29.65,West,270,36.0,36.0,68,0.00,,,0.00,meteohub,2014-01-19 23:22:00,
2014-01-19 18:27:00,36.1,26.2,29.66,West,270,42.0,42.0,67,0.00,,,0.00,meteohub,2014-01-19 23:27:00,
2014-01-19 18:32:00,36.1,26.6,29.66,West,270,30.0,38.0,68,0.00,,,0.00,meteohub,2014-01-19 23:32:00,
2014-01-19 18:38:00,36.1,26.6,29.66,West,270,32.0,42.0,68,0.00,,,0.00,meteohub,2014-01-19 23:38:00,
2014-01-19 18:43:00,36.1,26.6,29.66,WSW,248,28.0,42.0,68,0.00,,,0.00,meteohub,2014-01-19 23:43:00,
2014-01-19 18:48:00,36.1,26.6,29.66,West,270,36.0,36.0,68,0.00,,,0.00,meteohub,2014-01-19 23:48:00,
2014-01-19 18:53:00,36.1,26.6,29.66,WSW,248,39.0,39.0,68,0.00,,,0.00,meteohub,2014-01-19 23:53:00,
2014-01-19 18:58:00,36.1,26.6,29.66,WSW,248,25.0,39.0,68,0.00,,,0.00,meteohub,2014-01-19 23:58:00,
2014-01-19 19:03:00,36.1,26.6,29.66,WNW,293,34.0,39.0,68,0.00,,,0.00,meteohub,2014-01-20 00:03:00,
2014-01-19 19:08:00,36.3,27.1,29.67,West,270,30.0,39.0,69,0.00,,,0.00,meteohub,2014-01-20 00:08:00,
2014-01-19 19:13:00,36.3,26.8,29.67,WSW,248,24.0,34.0,68,0.00,,,0.00,meteohub,2014-01-20 00:13:00,
2014-01-19 19:18:00,36.5,27.3,29.67,West,270,23.0,34.0,69,0.00,,,0.00,meteohub,2014-01-20 00:18:00,
2014-01-19 19:23:00,36.5,27.0,29.67,West,270,18.0,32.0,68,0.00,,,0.00,meteohub,2014-01-20 00:23:00,
2014-01-19 19:28:00,36.5,27.3,29.66,NW,315,17.0,39.0,69,0.00,,,0.00,meteohub,2014-01-20 00:28:00,
2014-01-19 19:33:00,36.5,27.3,29.66,West,270,45.0,45.0,69,0.00,,,0.00,meteohub,2014-01-20 00:33:00,
2014-01-19 19:38:00,36.5,27.0,29.66,West,270,30.0,45.0,68,0.00,,,0.00,meteohub,2014-01-20 00:38:00,
2014-01-19 19:43:00,36.3,27.1,29.66,WSW,248,34.0,45.0,69,0.00,,,0.00,meteohub,2014-01-20 00:43:00,
2014-01-19 19:49:00,36.3,27.5,29.66,WNW,293,21.0,45.0,70,0.00,,,0.00,meteohub,2014-01-20 00:49:00,
2014-01-19 19:54:00,36.3,27.1,29.66,WNW,293,31.0,35.0,69,0.00,,,0.00,meteohub,2014-01-20 00:54:00,
2014-01-19 19:59:00,36.3,26.8,29.66,West,270,32.0,35.0,68,0.00,,,0.00,meteohub,2014-01-20 00:59:00,
2014-01-19 20:04:00,36.3,26.4,29.66,WNW,293,30.0,35.0,67,0.00,,,0.00,meteohub,2014-01-20 01:04:00,
2014-01-19 20:09:00,36.3,26.8,29.66,West,270,41.0,44.0,68,0.00,,,0.00,meteohub,2014-01-20 01:09:00,
2014-01-19 20:14:00,36.5,27.3,29.66,South,180,42.0,44.0,69,0.00,,,0.00,meteohub,2014-01-20 01:14:00,
2014-01-19 20:19:00,36.3,27.1,29.66,West,270,23.0,44.0,69,0.00,,,0.00,meteohub,2014-01-20 01:19:00,
2014-01-19 20:24:00,36.5,27.7,29.66,West,270,36.0,42.0,70,0.00,,,0.00,meteohub,2014-01-20 01:24:00,
2014-01-19 20:29:00,36.3,27.5,29.67,NW,315,29.0,42.0,70,0.00,,,0.00,meteohub,2014-01-20 01:29:00,
2014-01-19 20:34:00,36.3,27.5,29.67,WSW,248,30.0,36.0,70,0.00,,,0.00,meteohub,2014-01-20 01:34:00,
2014-01-19 20:39:00,36.3,27.5,29.67,West,270,23.0,36.0,70,0.00,,,0.00,meteohub,2014-01-20 01:39:00,
2014-01-19 20:44:00,36.3,27.5,29.67,West,270,17.0,36.0,70,0.00,,,0.00,meteohub,2014-01-20 01:44:00,
2014-01-19 20:49:00,36.5,28.0,29.67,West,270,21.0,32.0,71,0.00,,,0.00,meteohub,2014-01-20 01:49:00,
2014-01-19 20:54:00,36.5,28.0,29.67,West,270,21.0,32.0,71,0.00,,,0.00,meteohub,2014-01-20 01:54:00,
2014-01-19 21:00:00,36.5,28.4,29.67,West,270,27.0,34.0,72,0.00,,,0.00,meteohub,2014-01-20 02:00:00,
2014-01-19 21:05:00,36.5,28.4,29.67,West,270,25.0,36.0,72,0.00,,,0.00,meteohub,2014-01-20 02:05:00,
2014-01-19 21:10:00,36.5,28.0,29.66,West,270,26.0,36.0,71,0.00,,,0.00,meteohub,2014-01-20 02:10:00,
2014-01-19 21:15:00,36.7,28.2,29.66,West,270,26.0,30.0,71,0.00,,,0.00,meteohub,2014-01-20 02:15:00,
2014-01-19 21:20:00,36.5,28.4,29.66,WSW,248,14.0,30.0,72,0.00,,,0.00,meteohub,2014-01-20 02:20:00,
2014-01-19 21:25:00,36.5,28.8,29.66,WNW,293,17.0,30.0,73,0.00,,,0.00,meteohub,2014-01-20 02:25:00,
2014-01-19 21:30:00,36.5,28.8,29.66,West,270,13.0,26.0,73,0.00,,,0.00,meteohub,2014-01-20 02:30:00,
2014-01-19 21:35:00,36.3,28.2,29.66,WSW,248,22.0,23.0,72,0.00,,,0.00,meteohub,2014-01-20 02:35:00,
2014-01-19 21:40:00,36.3,27.9,29.66,SW,225,25.0,25.0,71,0.00,,,0.00,meteohub,2014-01-20 02:40:00,
2014-01-19 21:45:00,36.1,27.7,29.66,WSW,248,17.0,25.0,71,0.00,,,0.00,meteohub,2014-01-20 02:45:00,
2014-01-19 21:50:00,36.1,27.3,29.66,West,270,20.0,26.0,70,0.00,,,0.00,meteohub,2014-01-20 02:50:00,
2014-01-19 21:55:00,36.1,27.3,29.66,WSW,248,23.0,26.0,70,0.00,,,0.00,meteohub,2014-01-20 02:55:00,
2014-01-19 22:00:00,36.1,27.3,29.66,WSW,248,16.0,26.0,70,0.00,,,0.00,meteohub,2014-01-20 03:00:00,
2014-01-19 22:05:00,36.1,27.3,29.66,West,270,18.0,23.0,70,0.00,,,0.00,meteohub,2014-01-20 03:05:00,
2014-01-19 22:10:00,36.0,27.1,29.66,West,270,15.0,25.0,70,0.00,,,0.00,meteohub,2014-01-20 03:10:00,
2014-01-19 22:16:00,36.1,27.7,29.66,West,270,21.0,25.0,71,0.00,,,0.00,meteohub,2014-01-20 03:16:00,
2014-01-19 22:22:00,36.1,27.7,29.66,SW,225,19.0,25.0,71,0.00,,,0.00,meteohub,2014-01-20 03:22:00,
2014-01-19 22:27:00,36.1,27.7,29.65,WSW,248,18.0,24.0,71,0.00,,,0.00,meteohub,2014-01-20 03:27:00,
2014-01-19 22:32:00,36.3,27.5,29.65,West,270,26.0,26.0,70,0.00,,,0.00,meteohub,2014-01-20 03:32:00,
2014-01-19 22:37:00,36.3,27.9,29.65,WNW,293,20.0,26.0,71,0.00,,,0.00,meteohub,2014-01-20 03:37:00,
2014-01-19 22:42:00,36.3,27.9,29.65,SW,225,17.0,26.0,71,0.00,,,0.00,meteohub,2014-01-20 03:42:00,
2014-01-19 22:47:00,36.5,28.0,29.65,West,270,13.0,26.0,71,0.00,,,0.00,meteohub,2014-01-20 03:47:00,
2014-01-19 22:52:00,36.3,27.9,29.65,WSW,248,20.0,24.0,71,0.00,,,0.00,meteohub,2014-01-20 03:52:00,
2014-01-19 22:57:00,36.3,28.2,29.65,SW,225,24.0,24.0,72,0.00,,,0.00,meteohub,2014-01-20 03:57:00,
2014-01-19 23:02:00,36.3,27.9,29.65,WSW,248,21.0,24.0,71,0.00,,,0.00,meteohub,2014-01-20 04:02:00,
2014-01-19 23:07:00,36.3,28.2,29.65,West,270,16.0,24.0,72,0.00,,,0.00,meteohub,2014-01-20 04:07:00,
2014-01-19 23:12:00,36.5,28.4,29.65,SW,225,17.0,24.0,72,0.00,,,0.00,meteohub,2014-01-20 04:12:00,
2014-01-19 23:17:00,36.5,28.4,29.65,WSW,248,21.0,23.0,72,0.00,,,0.00,meteohub,2014-01-20 04:17:00,
2014-01-19 23:22:00,36.5,28.4,29.65,West,270,28.0,28.0,72,0.00,,,0.00,meteohub,2014-01-20 04:22:00,
2014-01-19 23:27:00,36.7,28.6,29.64,West,270,23.0,28.0,72,0.00,,,0.00,meteohub,2014-01-20 04:27:00,
2014-01-19 23:32:00,36.5,28.4,29.64,WSW,248,17.0,28.0,72,0.00,,,0.00,meteohub,2014-01-20 04:32:00,
2014-01-19 23:37:00,36.9,28.8,29.64,WSW,248,17.0,28.0,72,0.00,,,0.00,meteohub,2014-01-20 04:37:00,
2014-01-19 23:42:00,36.9,28.8,29.64,West,270,22.0,28.0,72,0.00,,,0.00,meteohub,2014-01-20 04:42:00,
2014-01-19 23:47:00,36.7,28.8,29.63,West,270,14.0,28.0,73,0.00,,,0.00,meteohub,2014-01-20 04:47:00,
2014-01-19 23:52:00,36.9,28.9,29.63,WSW,248,15.0,27.0,73,0.00,,,0.00,meteohub,2014-01-20 04:52:00,
2014-01-19 23:57:00,36.7,28.8,29.63,West,270,14.0,22.0,73,0.00,,,0.00,meteohub,2014-01-20 04:57:00,